Location: Alta
(39.2070°N, 120.8111°W)
Time: 08:49:56
(UTC+00:00)

ISS - Visible Passes

Search period start: 04 December 2022 00:00
Search period end: 14 December 2022 00:00
Orbit: 414 x 420 km, 51.6° (Epoch: 04 December)

Date Brightness Start Highest point End Pass type
(mag) Time Alt. Az. Time Alt. Az. Time Alt. Az.
04 Dec -3.2 02:12:13 10° NW 02:15:08 40° NNE 02:15:08 40° NNE visible
05 Dec -2.7 01:24:15 10° NNW 01:27:10 27° NNE 01:29:36 13° E visible
05 Dec -1.4 03:00:52 10° WNW 03:02:33 24° W 03:02:33 24° W visible
06 Dec -3.5 02:12:35 10° WNW 02:15:55 68° SW 02:17:19 31° SE visible
07 Dec -3.8 01:24:25 10° NW 01:27:45 67° NE 01:31:03 10° ESE visible
07 Dec -0.6 03:02:42 10° WSW 03:04:06 12° SW 03:05:30 10° SSW visible
08 Dec -1.2 02:13:28 10° W 02:16:06 21° SW 02:18:42 10° S visible
09 Dec -2.2 01:24:52 10° WNW 01:28:00 38° SW 01:31:07 10° SSE visible
11 Dec -0.3 01:26:21 10° W 01:27:57 13° SW 01:29:34 10° SSW visible
